Flag for South Africa Weather past 2 weeks in East London, South Africa

Now
55 °F

Passing clouds.


Feels Like: 53 °F
Forecast: 53 / 66 °F
Wind: 8 mph from Southwest

Location: Port Elizabeth Airport

Current Time: Aug 30, 2014 at 3:14:10 AM

Latest Report: Aug 30, 2014 at 2:00 AM


Visibility: N/A

Pressure: 30.48 "Hg

Humidity: 55%

Dew point: 39 °F

Location of East LondonLocation

Historic Weather in East London — Graph

°F

East London temperature yesterday

Maximum temperature yesterday: 61 °F (at 1:00 PM)
Minimum temperature yesterday: 46 °F (at 12:00 AM)
Average temperature yesterday: 53 °F

Past Weeks' High & Low Weather Summary

 TemperatureHumidityPressure
High84 °F (Aug 18, 11:00 AM)94% (Aug 15, 8:00 PM)30.48 "Hg (Aug 15, 8:00 PM)
Low46 °F (Aug 16, 6:00 AM)31% (Aug 18, 11:00 AM)29.74 "Hg (Aug 27, 5:01 AM)
Average59 °F73%30.05 "Hg
* Reported Aug 15 2:00 AM — Aug 30 2:00 AM, East London, Weather by CustomWeather, © 2014

Note: Actual official high and low records may vary slightly from our data, if they occured in-between our weather recording intervals... More about our weather records

Advertising

East London weather history for previous 24 hours

 ConditionsComfort  
Time TempWeatherWind HumidityBarometerVisibility
2:00 AM
Aug 30
55 °FPassing clouds.8 mph55%30.48 "HgN/A
12:00 AM54 °FClear.6 mph67%30.45 "Hg10 mi
10:00 PM
Aug 29
55 °FClear.16 mph63%30.45 "Hg10 mi
9:00 PM55 °FClear.12 mph55%30.45 "Hg10 mi
8:00 PM55 °FPassing clouds.12 mph59%30.42 "HgN/A
7:00 PM57 °FPassing clouds.12 mph51%30.39 "HgN/A
6:00 PM55 °FPassing clouds.12 mph67%30.39 "HgN/A
5:00 PM57 °FPartly cloudy.13 mph63%30.36 "HgN/A
4:00 PM59 °FPartly sunny.17 mph63%30.33 "HgN/A
3:01 PM57 °FSprinkles. Scattered clouds.20 mph72%30.30 "HgN/A
2:00 PM57 °FSprinkles. Partly sunny.18 mph72%30.30 "Hg5 mi
1:00 PM61 °FScattered clouds.22 mph59%30.30 "HgN/A
12:49 PM59 °FScattered clouds.23 mph63%30.30 "HgN/A
12:00 PM59 °FScattered clouds.15 mph68%30.30 "HgN/A
11:49 AM57 °FPartly sunny.13 mph72%30.30 "HgN/A
11:00 AM55 °FSprinkles. Partly sunny.18 mph77%30.30 "Hg5 mi
10:00 AM54 °FPassing clouds.17 mph72%30.27 "HgN/A
9:01 AM50 °FRain showers. Partly sunny.22 mph82%30.24 "Hg3 mi
9:00 AM52 °FSprinkles. Partly sunny.15 mph82%30.24 "Hg5 mi
8:00 AM50 °FSprinkles. Partly sunny.21 mph82%30.18 "Hg5 mi
7:00 AM50 °FSprinkles. Partly sunny.15 mph82%30.18 "HgN/A
6:59 AM50 °FSprinkles. Partly sunny.16 mph82%30.18 "HgN/A
6:00 AM48 °FSprinkles. Broken clouds.16 mph82%30.15 "HgN/A
5:00 AM46 °FPassing clouds.14 mph87%30.12 "HgN/A
4:00 AM46 °FRain showers. Passing clouds.20 mph87%30.09 "HgN/A
3:00 AM46 °FLight rain. Passing clouds.15 mph87%30.07 "HgN/A
Weather by CustomWeather, © 2014

See weather overviewHow to use our weather pages